Date String (YYYY-MM-DD hh:mm:ss) UTC,Instrument flags,Ambient pressure (hPa),Sample flow (lpm),Bypass flow (lpm),Sample temperature (°C),Ambient temperature (°C),ASC tube jacket temperature (°C),LED temperature (°C),Box temperature (°C),Sample RH (%),Span deviation,Mass concentration (μg/m³),Mass concentration (μg/m³),Mass concentration (μg/m³)
DateTimeUTC,F1_M11,P_M11,Q1_M11,Q2_M11,T1_M11,T2_M11,T3_M11,T4_M11,T5_M11,U1_M11,ZSPAN_M11,X0_M11,X2_M11,X1_M11
2022-02-08 14:00:00,,0827.2,5.00,0.00,22.4,22.0,00.0,31.4,24.1,06.5,0000.0,0003.39,0000.75,0000.49
2022-02-08 14:01:00,,0827.0,5.02,0.00,22.3,21.8,00.0,31.4,24.0,06.3,0000.0,0003.24,0000.77,0000.50
2022-02-08 14:02:00,,0827.1,4.99,0.00,22.3,21.7,00.0,31.3,24.0,06.5,0000.0,0002.22,0000.76,0000.50
2022-02-08 14:03:00,,0827.1,5.00,0.00,22.3,21.6,00.0,31.3,23.9,06.5,0000.0,0002.50,0000.76,0000.51
2022-02-08 14:04:00,,0827.2,5.00,0.00,22.2,21.5,00.0,31.3,23.9,06.6,0000.0,0003.32,0000.79,0000.52
2022-02-08 14:05:00,,0827.1,4.99,0.00,22.2,21.5,00.0,31.3,23.9,06.6,0000.0,0004.08,0000.84,0000.53
2022-02-08 14:06:00,,0827.2,5.01,0.00,22.2,21.5,00.0,31.3,23.9,06.3,0000.0,0005.66,0000.89,0000.54
2022-02-08 14:07:00,,0827.1,5.00,0.00,22.2,21.4,00.0,31.3,23.9,06.5,0000.0,0005.63,0000.87,0000.53
2022-02-08 14:08:00,,0827.0,5.01,0.00,22.2,21.5,00.0,31.3,23.9,06.7,0000.0,0005.09,0000.87,0000.54
2022-02-08 14:09:00,,0827.0,5.00,0.00,22.2,21.5,00.0,31.3,23.9,06.8,0000.0,0005.32,0000.89,0000.54
2022-02-08 14:10:00,,0827.3,5.00,0.00,22.2,21.5,00.0,31.2,23.9,07.2,0000.0,0005.83,0000.95,0000.55
2022-02-08 14:11:00,,0827.4,5.00,0.00,22.2,21.5,00.0,31.2,23.9,07.7,0000.0,0006.61,0001.02,0000.57
2022-02-08 14:12:00,,0827.4,4.99,0.00,22.1,21.4,00.0,31.2,23.8,07.8,0000.0,0006.84,0001.05,0000.57
2022-02-08 14:13:00,,0827.2,5.01,0.00,22.1,21.4,00.0,31.2,23.7,07.7,0000.0,0008.00,0001.11,0000.59
2022-02-08 14:14:00,,0827.4,5.01,0.00,22.0,21.3,00.0,31.2,23.7,07.6,0000.0,0008.02,0001.17,0000.60
2022-02-08 14:15:00,,0827.4,4.99,0.00,22.0,21.2,00.0,31.2,23.6,07.5,0000.0,0008.17,0001.15,0000.60
2022-02-08 14:16:00,,0827.1,5.01,0.00,22.0,21.1,00.0,31.1,23.6,07.5,0000.0,0008.22,0001.16,0000.60
2022-02-08 14:17:00,,0827.1,4.99,0.00,21.9,21.1,00.0,31.1,23.5,07.4,0000.0,0007.14,0001.11,0000.60
2022-02-08 14:18:00,,0827.3,5.01,0.00,21.9,21.1,00.0,31.1,23.5,07.2,0000.0,0007.27,0001.18,0000.61
2022-02-08 14:19:00,,0827.3,5.00,0.00,21.9,21.1,00.0,31.1,23.5,07.5,0000.0,0007.34,0001.21,0000.63
2022-02-08 14:20:00,,0827.4,4.99,0.00,21.9,21.1,00.0,31.1,23.6,07.5,0000.0,0007.15,0001.25,0000.63
2022-02-08 14:21:00,,0827.2,5.01,0.00,21.9,21.1,00.0,31.0,23.6,07.0,0000.0,0007.39,0001.24,0000.63
2022-02-08 14:22:00,,0827.4,4.99,0.00,21.9,21.2,00.0,31.0,23.7,07.0,0000.0,0006.41,0001.18,0000.62
2022-02-08 14:23:00,,0827.4,5.01,0.00,21.9,21.2,00.0,31.0,23.7,07.3,0000.0,0006.43,0001.17,0000.61
2022-02-08 14:24:00,,0827.4,5.01,0.00,21.9,21.3,00.0,31.0,23.8,07.4,0000.0,0004.83,0001.13,0000.60
2022-02-08 14:25:00,,0827.4,4.99,0.00,22.0,21.3,00.0,31.0,23.8,07.6,0000.0,0004.55,0001.10,0000.59
2022-02-08 14:26:00,,0827.5,5.00,0.00,22.0,21.3,00.0,31.0,23.8,07.3,0000.0,0003.57,0001.10,0000.59
2022-02-08 14:27:00,,0827.7,5.00,0.00,22.0,21.4,00.0,31.0,23.8,07.1,0000.0,0003.79,0001.08,0000.59
2022-02-08 14:28:00,,0827.7,4.99,0.00,22.0,21.4,00.0,31.0,23.8,07.3,0000.0,0003.87,0001.11,0000.59
2022-02-08 14:29:00,,0827.7,5.00,0.00,22.0,21.4,00.0,31.0,23.8,07.3,0000.0,0003.74,0001.09,0000.60
2022-02-08 14:30:00,,0827.7,5.01,0.00,22.0,21.4,00.0,31.0,23.9,07.5,0000.0,0003.85,0001.07,0000.60
2022-02-08 14:31:00,,0827.8,5.01,0.00,22.0,21.5,00.0,31.0,23.9,07.5,0000.0,0003.94,0001.02,0000.59
2022-02-08 14:32:00,,0827.9,5.00,0.00,22.1,21.5,00.0,31.0,23.9,07.2,0000.0,0004.24,0001.03,0000.60
2022-02-08 14:33:00,,0827.8,5.00,0.00,22.1,21.5,00.0,31.0,23.9,07.4,0000.0,0005.79,0001.06,0000.60
2022-02-08 14:34:00,,0827.8,4.99,0.00,22.1,21.5,00.0,31.0,23.9,07.2,0000.0,0006.25,0001.05,0000.60
2022-02-08 14:35:00,,0827.9,5.00,0.00,22.1,22.1,00.0,31.0,24.0,07.1,0000.0,0007.21,0001.04,0000.61
2022-02-08 14:36:00,,0828.1,5.01,0.00,22.3,22.9,00.0,31.1,24.3,07.1,0000.0,0007.67,0001.05,0000.60
2022-02-08 14:37:00,,0828.1,5.00,0.00,22.5,23.5,00.0,31.2,24.6,07.0,0000.0,0007.63,0001.04,0000.60
2022-02-08 14:38:00,,0828.1,4.99,0.00,22.5,23.3,00.0,31.2,24.6,07.1,0000.0,0006.92,0001.01,0000.60
2022-02-08 14:39:00,,0828.1,5.00,0.00,22.6,23.1,00.0,31.2,24.6,06.9,0000.0,0006.79,0000.98,0000.61
2022-02-08 14:40:00,,0828.0,5.00,0.00,22.6,23.0,00.0,31.3,24.6,06.8,0000.0,0006.79,0000.97,0000.61
2022-02-08 14:41:00,,0828.0,5.00,0.00,22.6,22.8,00.0,31.3,24.5,07.1,0000.0,0006.68,0000.96,0000.61
2022-02-08 14:42:00,,0827.9,5.00,0.00,22.6,22.7,00.0,31.3,24.5,07.2,0000.0,0006.29,0000.94,0000.61
2022-02-08 14:43:00,,0827.9,5.00,0.00,22.6,22.6,00.0,31.4,24.5,07.1,0000.0,0005.61,0000.91,0000.61
2022-02-08 14:44:00,,0828.0,5.01,0.00,22.6,22.5,00.0,31.4,24.5,06.7,0000.0,0004.13,0000.91,0000.61
2022-02-08 14:45:00,,0828.0,4.99,0.00,22.6,22.4,00.0,31.4,24.5,06.9,0000.0,0003.37,0000.90,0000.62
2022-02-08 14:46:00,,0828.0,5.02,0.00,22.7,22.4,00.0,31.4,24.5,07.0,0000.0,0002.27,0000.91,0000.62
2022-02-08 14:47:00,,0828.0,4.99,0.00,22.7,22.3,00.0,31.4,24.5,06.7,0000.0,0001.49,0000.90,0000.63
2022-02-08 14:48:00,,0828.0,5.02,0.00,22.7,22.3,00.0,31.5,24.5,06.7,0000.0,0001.44,0000.88,0000.63
2022-02-08 14:49:00,,0827.8,4.99,0.00,22.7,22.2,00.0,31.5,24.5,06.9,0000.0,0001.44,0000.88,0000.64
2022-02-08 14:50:00,,0827.8,5.01,0.00,22.6,22.2,00.0,31.5,24.5,06.6,0000.0,0001.38,0000.87,0000.63
2022-02-08 14:51:00,,0827.9,5.00,0.00,22.6,22.2,00.0,31.5,24.4,06.6,0000.0,0001.38,0000.88,0000.63
2022-02-08 14:52:00,,0828.0,5.00,0.00,22.6,22.1,00.0,31.5,24.4,06.9,0000.0,0001.60,0000.91,0000.63
2022-02-08 14:53:00,,0828.0,5.00,0.00,22.6,22.1,00.0,31.5,24.4,06.6,0000.0,0001.67,0000.93,0000.63
2022-02-08 14:54:00,,0828.0,5.01,0.00,22.6,22.1,00.0,31.5,24.4,06.2,0000.0,0001.66,0000.93,0000.63
2022-02-08 14:55:00,,0828.2,4.99,0.00,22.6,22.1,00.0,31.5,24.4,06.2,0000.0,0001.97,0000.93,0000.64
2022-02-08 14:56:00,,0828.3,4.99,0.00,22.6,22.1,00.0,31.5,24.4,06.4,0000.0,0002.51,0000.94,0000.64
2022-02-08 14:57:00,,0828.3,5.00,0.00,22.6,22.1,00.0,31.6,24.4,06.6,0000.0,0002.59,0000.96,0000.64
2022-02-08 14:58:00,,0828.1,4.99,0.00,22.6,22.1,00.0,31.6,24.5,06.7,0000.0,0002.53,0000.94,0000.63
2022-02-08 14:59:00,,0828.1,5.00,0.00,22.7,22.1,00.0,31.6,24.4,06.3,0000.0,0002.55,0000.94,0000.63
